INS-2TD

Last updated on Tue Oct 15 2024 00:02:25 GMT+0000 (Coordinated Universal Time)

1 51658U 22013C 24288.54135312 .00333413 00000+0 18488-2 0 9998 2 51658 97.4976 318.0410 0004099 103.6799 256.4924 15.78627559148564
UTC large
Height (km)
Speed (km/s)
/
Latitude / Longitude
Inclination (degrees)
Orbital Period (minutes)
Azimuth
Elevation
Range (km)
Doppler Factor

Next 0 passes for location: London (51.5072 / 0.1276)

Sorry there are no passes over London.